Regional Weather Roundup
Issued by NWS Bismarck, ND

Home | Current Version | Previous Version | Text Only | Print | Product List | Glossary On
Versions: 1 2 3 4 5 6 7 8 9 10 11 12 13 14 15 16 17 18 19 20 21 22 23 24 25 26 27 28 29 30 31 32 33 34 35 36 37 38 39 40 41 42 43 44 45 46 47 48 49 50
000
ASUS43 KBIS 240402
RWRBIS

NWR BROADCAST TEXT
NATIONAL WEATHER SERVICE BISMARCK ND
1100 PM CDT SAT SEP 23 2017

NOTE: "FAIR" INDICATES FEW OR NO CLOUDS BELOW 12,000 FEET WITH NO
SIGNIFICANT WEATHER AND/OR OBSTRUCTIONS TO VISIBILITY.


CITY           SKY/WX    TMP DP  RH WIND       PRES   REMARKS
WILLISTON      LGT RAIN  46  43  89 N6        30.12F
MINOT          LGT RAIN  48  46  93 N7        30.08S
MINOT AFB      LGT RAIN  48  46  92 N8        30.07R
BISMARCK       LGT RAIN  49  48  97 N9        30.06R FOG
DICKINSON      LGT RAIN  45  44  97 NE7       30.08R FOG
GARRISON         N/A     47  45  93 N3        30.07F
HETTINGER ARPT LGT RAIN  45  42  89 N10       30.09R FOG
JAMESTOWN      LGT RAIN  52  50  93 NE8       30.01R
CARRINGTON     CLOUDY    50  48  93 NE12G17   30.06R
LINTON         CLOUDY    52  52 100 N6        30.03F FOG
TIOGA          MOCLDY    43  43 100 N13       30.10F
$$

CITY           SKY/WX    TMP DP  RH WIND       PRES   REMARKS
GRAND FORKS    LGT RAIN  54  53  97 N9        30.00F
GRAND FORKS AF CLOUDY    53  50  92 N9        30.02S
DEVILS LAKE    LGT RAIN  49  47  93 NE13      30.04F
FARGO          CLOUDY    56  55  97 NE9       29.96F
CANDO          DRIZZLE   48  48 100 N8        30.07F
CAVALIER       LGT RAIN  52  50  93 N8        30.06S
GWINNER        CLOUDY    54  54 100 CALM      29.98R FOG
ROLLA          CLOUDY    48  48 100 NE7       30.09R
WALHALLA       FAIR     N/A N/A N/A N8G15     30.07R
$$

CITY           SKY/WX    TMP DP  RH WIND       PRES   REMARKS
ABERDEEN       LGT RAIN  54  54 100 N8        29.93F
MOBRIDGE       CLOUDY    54  52  93 N8        29.96F FOG
BUFFALO          N/A     45  44  97 NE12      30.01S
RAPID CITY     LGT RAIN  45  45 100 N14       30.03F FOG
GLASGOW        CLOUDY    47  39  74 SE5       30.14R
SIDNEY         LGT RAIN  46  44  93 N6        30.12S
WOLF POINT     CLOUDY    47  43  86 CALM      30.15R
GLENDIVE       LGT RAIN  44  42  93 N6        30.13R
MILES CITY     LGT RAIN  43  41  93 N7        30.12S
BAKER          LGT RAIN  44  41  89 N7        30.10F
$$

CITY           SKY/WX    TMP DP  RH WIND       PRES   REMARKS
BILLINGS       CLOUDY    43  39  86 N3        30.11F
GREAT FALLS    CLEAR     38  31  76 S8        30.09R
ESTEVAN        LGT RAIN  45  41  87 N6        30.12F
$$




USA.gov is the U.S. government's official web portal to all federal, state and local government web resources and services.